Location: Hope
(40.9110°N, 74.9680°W)
Time: 03:35:31
(UTC-04:00)

Envisat - Visible Passes

Search period start: 21 September 2018 00:00
Search period end: 01 October 2018 00:00
Orbit: 764 x 766 km, 98.2° (Epoch: 20 September)

Date Brightness Start Highest point End Pass type
(mag) Time Alt. Az. Time Alt. Az. Time Alt. Az.
21 Sep 4.0 20:31:20 10° S 20:36:11 46° W 20:41:06 10° NNW visible
22 Sep 2.9 19:54:22 10° SSE 19:59:25 79° ENE 20:04:31 10° N visible
22 Sep 5.9 21:37:21 10° WSW 21:39:00 11° W 21:40:40 10° WNW visible
23 Sep 3.6 19:18:15 10° SE 19:22:50 36° ENE 19:27:27 10° N visible
23 Sep 5.0 20:57:40 10° SSW 21:01:54 26° W 21:06:09 10° NW visible
24 Sep 3.6 20:20:00 10° S 20:24:59 59° W 20:30:01 10° NNW visible
25 Sep 3.0 19:43:16 10° SSE 19:48:16 62° ENE 19:53:18 10° N visible
25 Sep 5.8 21:24:51 10° SW 21:27:42 15° W 21:30:33 10° NW visible
26 Sep 4.6 20:46:06 10° SSW 20:50:39 33° W 20:55:14 10° NNW visible
27 Sep 3.2 20:08:44 10° S 20:13:48 75° WSW 20:18:54 10° NNW visible
28 Sep 3.2 19:32:16 10° SE 19:37:08 49° ENE 19:42:02 10° N visible
28 Sep 5.5 21:12:51 10° SW 21:16:24 19° W 21:19:59 10° NW visible
29 Sep 4.2 20:34:37 10° S 20:39:25 42° W 20:44:15 10° NNW visible
30 Sep 2.9 19:57:33 10° SSE 20:02:37 86° ENE 20:07:43 10° NNW visible
30 Sep 6.1 21:41:39 10° W 21:42:16 10° W 21:42:54 10° W visible
